FW6987 Weather Reports


Display with metric or nautical units.
time (UTC)temp
F
wind
direction
speed
MPH
gust
MPH
rain 1hr
in
rain 24hr
in
rain mn
in
humidity
%
barometer
mb
20260507123108 47 289 2.0 6.0 0.00 0.47 0.01 62 1001.7
20260507121602 46 168 1.0 5.0 0.00 0.47 0.01 64 1001.7
20260507120055 46 299 0.0 6.0 0.00 0.47 0.01 69 1001.8
20260507114555 46 293 0.0 6.0 0.00 0.47 0.01 74 1001.9
20260507113055 46 12 2.0 8.0 0.00 0.47 0.01 76 1001.7
20260507111554 46 245 3.0 8.0 0.00 0.47 0.01 81 1001.4
20260507110056 46 107 1.0 4.0 0.00 0.47 0.01 86 1001.3
20260507104556 46 89 1.0 3.0 0.00 0.47 0.01 89 1001.1
20260507103100 46 0 0.0 1.0 0.00 0.47 0.01 89 1000.8
20260507101601 46 0 0.0 3.0 0.00 0.47 0.01 88 1000.6
20260507100111 46 115 0.0 4.0 0.00 0.47 0.01 87 1000.0
20260507094552 46 0 0.0 0.0 0.00 0.47 0.01 86 999.7
20260507093051 47 0 0.0 0.0 0.00 0.47 0.01 86 999.8
20260507091547 47 0 0.0 0.0 0.00 0.47 0.01 85 999.8
20260507090050 47 0 0.0 4.0 0.00 0.47 0.01 84 999.7
20260507084552 47 0 0.0 2.0 0.00 0.47 0.01 84 999.8
20260507083109 48 135 0.0 3.0 0.00 0.47 0.01 84 999.7
20260507081600 48 128 0.0 2.0 0.00 0.47 0.01 83 999.8
20260507080055 48 0 1.0 4.0 0.00 0.47 0.01 83 1000.0
20260507074605 49 0 2.0 5.0 0.00 0.47 0.01 81 1000.3
20260507073101 49 150 3.0 6.0 0.00 0.47 0.01 82 1000.3
20260507071554 49 0 0.0 5.0 0.00 0.47 0.01 82 1000.7
20260507070053 48 0 3.0 7.0 0.00 0.47 0.01 83 1000.4
20260507064553 48 241 2.0 5.0 0.01 0.47 0.01 87 1000.0
20260507063056 49 237 1.0 6.0 0.01 0.47 0.01 89 1000.0
20260507061558 49 0 0.0 3.0 0.01 0.47 0.01 89 1000.0
20260507060059 49 0 0.0 8.0 0.01 0.47 0.01 89 999.6
20260507054555 50 0 1.0 3.0 0.00 0.46 0.00 88 999.7
20260507053053 50 115 0.0 5.0 0.00 0.46 0.00 87 999.6
20260507051554 51 125 0.0 4.0 0.00 0.46 0.00 86 999.9
20260507050055 50 235 2.0 10.0 0.00 0.46 0.00 86 999.9
20260507044553 50 282 2.0 5.0 0.00 0.46 0.00 87 1000.0
20260507043049 50 207 0.0 4.0 0.00 0.46 0.00 88 1000.3
20260507041549 50 258 1.0 6.0 0.00 0.46 0.00 89 1000.1
20260507040051 51 314 2.0 4.0 0.00 0.46 0.00 91 1000.2
20260507034553 52 317 1.0 3.0 0.00 0.46 0.46 92 1000.0
20260507033052 52 0 0.0 0.0 0.00 0.46 0.46 92 999.8
20260507031550 52 0 0.0 1.0 0.00 0.46 0.46 92 999.9
20260507030053 53 0 0.0 2.0 0.00 0.46 0.46 92 999.8
20260507024603 53 0 0.0 1.0 0.00 0.46 0.46 92 999.9
20260507023049 53 0 1.0 3.0 0.00 0.46 0.46 91 1000.2
20260507021549 53 0 0.0 4.0 0.00 0.46 0.46 91 1000.2
20260507020106 53 320 2.0 7.0 0.00 0.46 0.46 91 1000.0
20260507014603 54 0 0.0 3.0 0.00 0.46 0.46 92 999.9
20260507013054 55 0 0.0 3.0 0.00 0.46 0.46 92 999.3
20260507011550 55 0 0.0 3.0 0.00 0.46 0.46 92 999.0
20260507010050 55 0 0.0 3.0 0.01 0.46 0.46 92 998.8
20260507004556 55 133 1.0 5.0 0.02 0.46 0.46 93 998.4
20260507003057 56 113 1.0 7.0 0.05 0.46 0.46 93 998.0
20260507001554 57 127 1.0 6.0 0.10 0.46 0.46 94 997.8
20260507000051 57 125 2.0 5.0 0.11 0.45 0.45 94 997.5
20260506234556 58 152 4.0 9.0 0.10 0.44 0.44 94 997.4
20260506233057 59 191 3.0 12.0 0.07 0.41 0.41 94 997.3
20260506231557 60 0 0.0 1.0 0.02 0.36 0.36 95 996.9
20260506230058 60 0 0.0 1.0 0.00 0.34 0.34 95 996.9
20260506224548 60 0 0.0 2.0 0.00 0.34 0.34 95 996.8
20260506223106 60 0 0.0 3.0 0.00 0.34 0.34 95 996.7
20260506221554 60 0 1.0 4.0 0.00 0.34 0.34 95 996.6
20260506220052 60 0 0.0 3.0 0.01 0.34 0.34 95 996.4
20260506214552 60 155 0.0 5.0 0.01 0.34 0.34 95 996.3
20260506213122 60 227 1.0 4.0 0.01 0.34 0.34 95 996.3
20260506211613 60 0 0.0 5.0 0.01 0.34 0.34 95 996.4
20260506204557 60 0 0.0 3.0 0.01 0.33 0.33 95 996.2
20260506203053 60 196 0.0 2.0 0.01 0.33 0.33 95 996.2
20260506201600 60 0 0.0 3.0 0.01 0.33 0.33 95 996.3
20260506200059 60 0 0.0 2.0 0.01 0.33 0.33 95 996.5
20260506194610 60 141 0.0 9.0 0.00 0.32 0.32 95 996.7
20260506193051 60 176 1.0 3.0 0.01 0.32 0.32 95 996.7
20260506191552 60 193 1.0 4.0 0.01 0.32 0.32 94 996.8
20260506190054 60 177 2.0 6.0 0.02 0.32 0.32 94 997.0
20260506184607 60 194 1.0 5.0 0.05 0.32 0.32 94 997.1
20260506183103 60 178 1.0 8.0 0.08 0.31 0.31 94 997.3
20260506181552 60 157 1.0 4.0 0.10 0.31 0.31 94 997.5
20260506180050 60 178 1.0 4.0 0.12 0.30 0.30 93 997.4
20260506174555 61 139 1.0 5.0 0.09 0.26 0.26 93 997.5
20260506173054 61 0 0.0 2.0 0.07 0.23 0.23 93 997.4
20260506171554 61 145 0.0 2.0 0.09 0.21 0.21 93 997.4
20260506170113 61 0 0.0 1.0 0.08 0.18 0.18 92 997.6
20260506164552 61 0 0.0 0.0 0.09 0.17 0.17 92 997.8
20260506163110 61 0 0.0 0.0 0.10 0.16 0.16 91 998.1
20260506161554 61 0 0.0 0.0 0.09 0.12 0.12 90 998.6
20260506160051 61 0 0.0 1.0 0.09 0.10 0.10 90 998.7
20260506154554 61 208 0.0 1.0 0.08 0.08 0.08 89 998.7
20260506153054 61 0 0.0 2.0 0.06 0.06 0.06 88 998.8
20260506151558 62 210 0.0 2.0 0.03 0.03 0.03 87 999.0
20260506150054 62 0 0.0 5.0 0.01 0.01 0.01 85 999.0
20260506144601 63 295 1.0 4.0 0.00 0.00 0.00 83 999.1
20260506143055 64 0 0.0 4.0 0.00 0.00 0.00 81 999.1
20260506141550 64 0 1.0 4.0 0.00 0.00 0.00 79 999.3
20260506140055 64 234 1.0 5.0 0.00 0.00 0.00 77 999.6
20260506134557 64 0 0.0 5.0 0.00 0.00 0.00 77 999.5
20260506133053 65 175 1.0 6.0 0.00 0.00 0.00 77 999.0
20260506131552 64 181 1.0 6.0 0.00 0.00 0.00 78 998.7
20260506130058 64 0 1.0 4.0 0.00 0.00 0.00 78 998.7
20260506124554 64 0 1.0 3.0 0.00 0.00 0.00 78 998.9